{"data":{"norad_id":58006,"epoch":"2026-05-24T22:48:35.887104Z","epoch_age_seconds":73155,"freshness":"FRESH","line1":"1 58006U 23153R   26144.95041536  .00024563  00000+0  84491-3 0  9991","line2":"2 58006  43.0043 330.8401 0003993 285.4563  74.5849 15.29610037146856","mean_motion":15.29610037,"eccentricity":0.0003993,"inclination_deg":43.0043,"raan_deg":330.8401,"arg_perigee_deg":285.4563,"mean_anomaly_deg":74.5849,"bstar":0.00084491,"rev_number":14685,"period_min":94.141641671249,"perigee_km":474.23991166356,"apogee_km":479.71440583073,"semimajor_km":6855.1141587471,"source":"CELESTRAK","updated_at":"2026-05-25T13:38:18.492376Z"}}